This demonstration page uses our WeatherBlox Daily Observations layout. Learn more.

Left ArrowRight Arrow

Hourly Observations for September 25, 2022

Temp ( °F °C ) Dew Point ( °F °C ) Humidity (%) Winds ( mph kmh ) Pressure ( in mb ) Visibility ( mi km ) Precip ( " mm )
12:52 am 00:52 Clear 68 20 62 16.7 81 81 Calm 29.88 1012 10 16 0.00 0.00
1:52 am 01:52 Mostly Clear 67 19.4 62 16.7 84 84 Calm 29.88 1012 10 16 0.00 0.00
2:52 am 02:52 Clear 65 18.3 61 16.1 87 87 Calm 29.88 1012 10 16 0.00 0.00
3:52 am 03:52 Clear 63 17.2 60 15.6 90 90 SW 6 9 29.88 1012 10 16 0.00 0.00
4:52 am 04:52 Clear 63 17.2 61 16.1 93 93 NW 7 11 29.92 1013 10 16 0.00 0.00
5:52 am 05:52 Clear 63 17.2 55 12.8 75 75 NNE 6 9 29.95 1014 10 16 0.00 0.00
6:52 am 06:52 Clear 60 15.6 53 11.7 78 78 N 6 9 29.97 1015 10 16 0.00 0.00
7:52 am 07:52 Sunny 61 16.1 54 12.2 78 78 NW 5 7 29.99 1016 10 16 0.00 0.00
8:52 am 08:52 Sunny 66 18.9 56 13.3 70 70 NNW 7 11 30.01 1016 10 16 0.00 0.00
9:52 am 09:52 Sunny 71 21.7 50 10 47 47 N 10 17 30.04 1017 10 16 0.00 0.00
10:52 am 10:52 Sunny 75 23.9 47 8.3 37 37 N 18 30 30.05 1018 10 16 0.00 0.00
11:52 am 11:52 Sunny 76 24.4 48 8.9 37 37 NNW 17 28 30.05 1018 10 16 0.00 0.00
12:52 pm 12:52 Sunny 78 25.6 47 8.3 33 33 N 16 26 30.04 1017 10 16 0.00 0.00
1:52 pm 13:52 Sunny 80 26.7 43 6.1 27 27 NNW 15 24 30.02 1017 10 16 0.00 0.00
2:52 pm 14:52 Sunny 79 26.1 45 7.2 30 30 N 17 28 30.00 1016 10 16 0.00 0.00
3:52 pm 15:52 Sunny 81 27.2 44 6.7 27 27 NNW 14 22 29.99 1016 10 16 0.00 0.00
4:52 pm 16:52 Sunny 79 26.1 42 5.6 27 27 NNW 16 26 29.98 1015 10 16 0.00 0.00
5:52 pm 17:52 Sunny 77 25 41 5 28 28 NNW 17 28 29.98 1015 10 16 0.00 0.00
6:52 pm 18:52 Sunny 72 22.2 41 5 33 33 NNW 12 19 30.00 1016 10 16 0.00 0.00
7:52 pm 19:52 Clear 68 20 42 5.6 39 39 NW 6 9 30.01 1016 10 16 0.00 0.00
8:52 pm 20:52 Clear 66 18.9 42 5.6 42 42 WNW 5 7 30.03 1017 10 16 0.00 0.00
9:52 pm 21:52 Clear 58 14.4 44 6.7 60 60 undefined N/A 30.04 1017 10 16 0.00 0.00
10:52 pm 22:52 Clear 55 12.8 45 7.2 69 69 undefined N/A 30.05 1018 10 16 0.00 0.00
11:52 pm 23:52 Clear 55 12.8 44 6.7 66 66 undefined N/A 30.05 1018 10 16 0.00 0.00

Powered by AerisWeather